IGO5288 VECC-VABB

Flight info

Callsign IGO5288
Flight time N/A
Altitude 34000
Route JJS2E JJS Q20 OPAKA EMRAK2A
Aircraft A21N/M-SDE2E3FGHIRWXY/LB1

Departure

Time 2026-05-04 13:53
Airport Netaji Subhash Chandra Bose International Airport (VECC)

Arrival

Time N/A
Airport Chhatrapati Shivaji Maharaj International Airport (VABB)
Time Latitude Longitude Altitude Speed Heading
2026-05-04 13:23 22.64304 88.44065 24 ft 0 kts 273°
2026-05-04 13:36 22.64304 88.44066 25 ft 1 kts 274°
2026-05-04 13:36 22.64303 88.44081 24 ft 2 kts 273°
2026-05-04 13:36 22.64302 88.44096 24 ft 2 kts 274°
2026-05-04 13:37 22.64301 88.44112 24 ft 2 kts 274°
2026-05-04 13:37 22.64301 88.44127 23 ft 2 kts 273°
2026-05-04 13:37 22.64300 88.44138 23 ft 1 kts 251°
2026-05-04 13:37 22.64303 88.44144 23 ft 1 kts 211°
2026-05-04 13:38 22.64318 88.44145 23 ft 2 kts 179°
2026-05-04 13:38 22.64327 88.44146 23 ft 1 kts 188°
2026-05-04 13:38 22.64331 88.44147 23 ft 0 kts 186°
2026-05-04 13:38 22.64332 88.44147 23 ft 0 kts 186°
2026-05-04 13:41 22.64331 88.44147 23 ft 0 kts 186°
2026-05-04 13:41 22.64324 88.44146 23 ft 2 kts 185°
2026-05-04 13:42 22.64233 88.44137 23 ft 10 kts 186°
2026-05-04 13:42 22.64150 88.44127 23 ft 12 kts 186°
2026-05-04 13:42 22.64065 88.44116 23 ft 9 kts 186°
2026-05-04 13:42 22.64017 88.44151 23 ft 9 kts 110°
2026-05-04 13:43 22.64008 88.44225 22 ft 10 kts 96°
2026-05-04 13:43 22.64008 88.44290 22 ft 6 kts 80°
2026-05-04 13:43 22.64008 88.44295 22 ft 0 kts 79°
2026-05-04 13:45 22.64010 88.44302 22 ft 1 kts 79°
2026-05-04 13:45 22.64013 88.44315 22 ft 2 kts 75°
2026-05-04 13:45 22.64013 88.44319 22 ft 2 kts 75°
2026-05-04 13:45 22.64019 88.44340 22 ft 6 kts 72°
2026-05-04 13:46 22.64052 88.44399 20 ft 10 kts 28°
2026-05-04 13:46 22.64122 88.44413 20 ft 10 kts
2026-05-04 13:46 22.64191 88.44425 21 ft 7 kts 24°
2026-05-04 13:46 22.64223 88.44471 21 ft 8 kts 65°
2026-05-04 13:47 22.64243 88.44519 20 ft 0 kts 65°
2026-05-04 13:48 22.64245 88.44526 20 ft 1 kts 65°
2026-05-04 13:48 22.64246 88.44527 20 ft 0 kts 65°
2026-05-04 13:51 22.64249 88.44534 20 ft 1 kts 65°
2026-05-04 13:51 22.64257 88.44553 20 ft 4 kts 64°
2026-05-04 13:51 22.64270 88.44585 20 ft 4 kts 67°
2026-05-04 13:51 22.64283 88.44615 20 ft 5 kts 61°
2026-05-04 13:52 22.64553 88.44672 22 ft 41 kts
2026-05-04 13:52 22.65090 88.44735 25 ft 109 kts
2026-05-04 13:52 22.66036 88.44853 64 ft 158 kts 12°
2026-05-04 13:53 22.67138 88.44998 628 ft 160 kts 11°
2026-05-04 13:53 22.68263 88.45100 1135 ft 169 kts
2026-05-04 13:53 22.69457 88.45138 1645 ft 178 kts
2026-05-04 13:54 22.72068 88.45331 2379 ft 202 kts
2026-05-04 13:54 22.73519 88.45470 2758 ft 218 kts
2026-05-04 13:54 22.76774 88.45810 3456 ft 257 kts
2026-05-04 13:55 22.78603 88.46002 3985 ft 270 kts
2026-05-04 13:55 22.82111 88.45016 5396 ft 273 kts 311°
2026-05-04 13:55 22.83033 88.43228 5929 ft 280 kts 285°
2026-05-04 13:56 22.83511 88.41166 6487 ft 289 kts 282°
2026-05-04 13:56 22.83978 88.39052 7178 ft 292 kts 283°
2026-05-04 13:56 22.85016 88.35019 8526 ft 297 kts 283°
2026-05-04 13:57 22.85417 88.32812 9182 ft 299 kts 278°
2026-05-04 13:57 22.85703 88.30606 9629 ft 301 kts 277°
2026-05-04 13:58 22.86539 88.23849 9839 ft 303 kts 278°
2026-05-04 13:58 22.87112 88.19344 9833 ft 302 kts 278°
2026-05-04 13:58 22.87404 88.17062 9831 ft 303 kts 278°
2026-05-04 13:59 22.87692 88.14814 9836 ft 302 kts 278°
2026-05-04 13:59 22.87979 88.12556 9841 ft 302 kts 278°
2026-05-04 13:59 22.88555 88.08048 9835 ft 302 kts 278°
2026-05-04 14:00 22.88841 88.05808 9844 ft 302 kts 278°
2026-05-04 14:00 22.89413 88.01303 9840 ft 302 kts 278°
2026-05-04 14:00 22.89701 87.99032 9840 ft 303 kts 278°
2026-05-04 14:01 22.89988 87.96774 9838 ft 302 kts 278°
2026-05-04 14:01 22.90210 87.94498 9854 ft 305 kts 275°
2026-05-04 14:01 22.90504 87.89769 10379 ft 331 kts 274°
2026-05-04 14:02 22.90656 87.87196 10670 ft 348 kts 274°
2026-05-04 14:02 22.90814 87.84563 11127 ft 357 kts 274°
2026-05-04 14:02 22.90974 87.81888 11751 ft 360 kts 274°
2026-05-04 14:02 22.91135 87.79186 12401 ft 361 kts 274°
2026-05-04 14:03 22.91299 87.76457 13009 ft 365 kts 274°
2026-05-04 14:03 22.91464 87.73716 13566 ft 369 kts 274°